軌道要素
Epoch 2023 Feb. 25.0 TT = JDT 2460000.5
T 2020 Apr. 27.82311 TT Rudenko
q 0.8317116 (2000.0) P Q
z +0.0052491 Peri. 26.67609 -0.13560806 -0.56693235
+/-0.0001720 Node 277.66312 -0.99036107 +0.05422119
e 0.9956342 Incl. 124.93045 -0.02820276 +0.82197796
>From 137 observations 2020 Apr. 26-2022 Jan. 31, mean residual 0".7.
|